Location: Champs
(48.8539°N, 2.6040°E)
Time: 19:38:24
(UTC+00:00)

ATLAS CENTAUR R/B - Pass Details

Date: 01 June 2022
Orbit: 443 x 688 km, 64.6° (Epoch: 07 June)

Event Time Altitude Azimuth Distance (km) Brightness Sun altitude
Rises 22:29:36 0° 311° (NW) 3,049 6.2 -16.9°
Reaches altitude 10° 22:32:27 10° 296° (WNW) 2,108 4.9 -17.0°
Maximum altitude 22:36:00 21° 248° (WSW) 1,473 3.4 -17.2°
Enters shadow 22:37:50 17° 217° (SW) 1,641 3.4 -17.3°
